Regional Weather Roundup
Issued by NWS

Home | Current Version | Previous Version | Text Only | Print | Product List | Glossary On
Versions: 1 2 3 4 5 6 7 8 9 10 11 12 13 14 15 16 17 18 19 20 21 22 23 24 25 26 27 28 29 30 31 32 33 34 35 36 37 38 39 40 41 42 43 44 45 46 47 48 49 50
000
ASUS46 KSEW 010810
RWRWA

WASHINGTON REGIONAL WEATHER ROUNDUP
NATIONAL WEATHER SERVICE SEATTLE WA
1200 AM PST SUN FEB 01 2015

NOTE:"FAIR" INDICATES FEW OR NO CLOUDS BELOW 12,000 FEET WITH NO
SIGNIFICANT WEATHER AND/OR OBSTRUCTIONS TO VISIBILITY.

WAZ505-507>509-010900-
SEATTLE, TACOMA, EVERETT, AND VICINITY

CITY           SKY/WX    TMP DP  RH WIND       PRES   REMARKS
EVERETT        FOG       41  40  96 CALM      30.10F VSB 1/4
BOEING FIELD   CLOUDY    47  40  76 CALM      30.11S
RENTON         CLOUDY    44  41  89 N7        30.10F
SEATAC AIRPORT CLOUDY    43  40  89 N8        30.10F
JBLM-MCCHORD   CLOUDY    42  42 100 SW3       30.10S FOG
PUYALLUP       FOG       39  39 100 CALM      30.09F VSB 1/4
BREMERTON      CLOUDY    43  39  87 N3        30.12S
JBLM-FT LEWIS  CLOUDY    41  41  99 S3        30.10S FOG
TACOMA NARROWS CLOUDY    41  40  96 CALM      30.11S FOG
$$

WAZ001-503-506-510-514-515-010900-
NORTH INTERIOR

CITY           SKY/WX    TMP DP  RH WIND       PRES   REMARKS
BELLINGHAM     CLOUDY    42  40  92 SW5       30.11F FOG
FRIDAY HARBOR  CLOUDY    43  41  93 N3        30.12F
EASTSOUND      CLOUDY    45  45 100 N6        30.11F
PORT ANGELES   CLOUDY    42  39  89 E6        30.10F
NAS WHIDBEY    CLOUDY    45  42  89 CALM      30.11F
ARLINGTON      CLOUDY    41  37  87 CALM      30.12F
BURLINGTON     PTCLDY    43 N/A N/A NW3       30.13S
$$

WAZ020-022-039-040-504-511-512-010900-
SOUTHWEST INTERIOR

CITY           SKY/WX    TMP DP  RH WIND       PRES   REMARKS
SHELTON        CLOUDY    41  39  93 CALM      30.09S FOG
OLYMPIA        CLOUDY    42  40  92 SE3       30.11S FOG
CHEHALIS         N/A     43  41  93 CALM      30.12R
KELSO          CLOUDY    39  36  87 CALM      30.16R
VANCOUVER      CLOUDY    37  33  85 CALM      30.13R
SCAPPOOSE, OR  CLOUDY    38  35  89 SW3       30.12S
PORTLAND, OR   CLOUDY    42  34  73 E8        30.12S
$$

WAZ021-516-517-010900-
WASHINGTON COAST

CITY           SKY/WX    TMP DP  RH WIND       PRES   REMARKS
FORKS          CLOUDY    47  39  74 E3        30.02F
HOQUIAM        CLOUDY    44  41  89 E14       30.05F
ASTORIA, OR    CLOUDY    45  39  79 E6        30.04F
$$

WAZ019-023-024-040-518-519-010900-
CASCADE MOUNTAINS AND COLUMBIA GORGE

CITY           SKY/WX    TMP DP  RH WIND       PRES   REMARKS
TROUTDALE, OR  CLOUDY    43  31  62 E25G33    30.12R
THE DALLES, OR CLOUDY    39  34  82 E3        30.32S
$$

WAZ026-027-041>044-520-521-010900-
EAST SLOPES

CITY           SKY/WX    TMP DP  RH WIND       PRES   REMARKS
OMAK           CLOUDY    34  30  85 SE3       30.30F
WENATCHEE      CLOUDY    37  32  82 E3        30.30R
ELLENSBURG     CLOUDY    35  31  85 SE6       30.26S
YAKIMA         CLOUDY    37  32  82 CALM      30.31R
$$

WAZ028-034-035-010900-
COLUMBIA BASIN

CITY           SKY/WX    TMP DP  RH WIND       PRES   REMARKS
EPHRATA        CLOUDY    35  31  85 N3        30.29S
MOSES LAKE     CLOUDY    35  31  85 N6        30.30F
PASCO          CLOUDY    37  34  89 NW6       30.31F
HERMISTON, OR  CLOUDY    37  32  82 NW3       30.29F
$$

WAZ036>038-010900-
NORTHEAST WASHINGTON

CITY           SKY/WX    TMP DP  RH WIND       PRES   REMARKS
SPOKANE GEIGER CLOUDY    29  29 100 NE5       30.24F
SPOKANE FELTS  MOCLDY    31  27  85 CALM      30.27F
FAIRCHILD AFB  MOCLDY    29  29  99 NE6       30.23F
COEURDALENE,ID MOCLDY    28  25  86 NE6       30.25F
DEER PARK      MOCLDY    28  26  92 NE3       30.26F
$$

WAZ029>033-010900-
SOUTHEAST WASHINGTON

CITY           SKY/WX    TMP DP  RH WIND       PRES   REMARKS
PULLMAN        CLOUDY    32  28  85 E12       30.24F WCI  23
LEWISTON, ID   CLOUDY    34  29  82 E5        30.28F
WALLA WALLA    CLOUDY    36  32  85 S5        30.24F
PENDLETON, OR  CLOUDY    34  30  85 CALM      30.22F
$$



USA.gov is the U.S. government's official web portal to all federal, state and local government web resources and services.